Tracking 20942 objects as of 13-Jul-2020
HD Live streaming from Space Station
objects crossing your sky now

THOR ABLESTAR DEB

Track THOR ABLESTAR DEB now!
10-day predictions


NORAD ID: 13513
Int'l Code: 1961-015KW
Perigee: 886.1 km
Apogee: 1,023.7 km
Inclination: 65.7 °
Period: 104.0 minutes
Semi major axis: 7325 km
RCS: 0.0483 m2 (small)
Launch date: June 29, 1961
Source: United States (US)
Launch site: AIR FORCE EASTERN TEST RANGE (AFETR)

Note: This is SATELLITE DEBRIS
aabbcc
Your satellite tracking list
Your tracking list is empty




NASA's NSSDC Master Catalog

Two Line Element Set (TLE):
1 13513U 61015KW  20193.69790324  .00000306  00000-0  33523-3 0  9999
2 13513  65.6803 283.8683 0093878 159.2885 352.4388 13.84556093 19214
Source of the keplerian elements: AFSPC